Location: Overspoor
(51.4747°N, 5.6641°E)
Time: 07:16:54
(UTC+02:00)

YUBILEINY - Pass Details

Date: 06 July 2022
Orbit: 1478 x 1509 km, 82.5° (Epoch: 17 August)

Event Time Altitude Azimuth Distance (km) Brightness Sun altitude
Rises 03:41:21 0° 348° (NNW) 4,655 ? -11.3°
Reaches altitude 10° 03:44:44 10° 358° (N) 3,667 ? -11.1°
Maximum altitude 03:52:29 33° 60° (ENE) 2,331 ? -10.5°
Drops below altitude 10° 04:00:07 10° 121° (ESE) 3,631 ? -9.9°
Sets 04:03:25 0° 131° (SE) 4,603 ? -9.6°
